Time,TemperatureF,DewpointF,PressureIn,WindDirection,WindDirectionDegrees,WindSpeedMPH,WindSpeedGustMPH,Humidity,HourlyPrecipIn,Conditions,Clouds,dailyrainin,SolarRadiationWatts/m^2,SoftwareType,DateUTC
2013-03-14 00:00:00,31.0,23.0,-100.00,ESE,121,0.0,1.0,70,-99.99,,,0.00,0.000000,,2013-03-14 06:00:00,
2013-03-14 01:00:00,32.0,24.0,-100.00,ESE,109,0.0,1.0,71,-99.99,,,0.00,0.000000,,2013-03-14 07:00:00,
2013-03-14 01:53:00,32.0,-99.9,-100.00,North,-999,-999.0,-999.0,-999,-99.99,,,0.00,,,2013-03-14 07:53:00,
2013-03-14 02:00:00,35.0,25.0,-100.00,South,170,1.0,3.0,66,-99.99,,,0.00,0.000000,,2013-03-14 08:00:00,
2013-03-14 03:00:00,35.0,22.0,-100.00,South,173,1.0,3.0,57,-99.99,,,0.00,0.000000,,2013-03-14 09:00:00,
2013-03-14 04:00:00,35.0,21.0,-100.00,South,174,1.0,3.0,58,-99.99,,,0.00,0.000000,,2013-03-14 10:00:00,
2013-03-14 05:00:00,35.0,21.0,-100.00,South,185,1.0,4.0,57,-99.99,,,0.00,0.000000,,2013-03-14 11:00:00,
2013-03-14 06:00:00,36.0,21.0,-100.00,South,175,1.0,3.0,54,-99.99,,,0.00,0.000000,,2013-03-14 12:00:00,
2013-03-14 07:00:00,35.0,19.0,-100.00,South,173,1.0,3.0,51,-99.99,,,0.00,0.000000,,2013-03-14 13:00:00,
2013-03-14 08:00:00,32.0,20.0,-100.00,ESE,117,0.0,2.0,59,-99.99,,,0.00,4.300000,,2013-03-14 14:00:00,
2013-03-14 11:00:00,53.0,15.0,-100.00,West,268,1.0,4.0,22,-99.99,,,0.00,674.000000,,2013-03-14 17:00:00,
2013-03-14 11:53:00,53.0,15.0,-100.00,West,268,1.0,4.0,22,-99.99,,,0.00,674.000000,,2013-03-14 17:53:00,
2013-03-14 12:00:00,55.0,14.0,-100.00,West,277,2.0,5.0,19,-99.99,,,0.01,816.900024,,2013-03-14 18:00:00,
2013-03-14 12:52:00,55.0,14.0,-100.00,West,277,2.0,5.0,19,-99.99,,,0.01,816.900024,,2013-03-14 18:52:00,
2013-03-14 14:00:00,58.0,17.0,-100.00,WNW,282,2.0,4.0,20,-99.99,,,0.00,902.900024,,2013-03-14 20:00:00,
2013-03-14 15:00:00,60.0,15.0,-100.00,WNW,293,1.0,4.0,17,-99.99,,,0.00,850.700012,,2013-03-14 21:00:00,
2013-03-14 15:53:00,60.0,15.0,-100.00,WNW,293,1.0,4.0,17,-99.99,,,0.00,850.700012,,2013-03-14 21:53:00,
2013-03-14 16:00:00,57.0,11.0,-100.00,WNW,294,1.0,5.0,16,-99.99,,,0.00,360.799988,,2013-03-14 22:00:00,
2013-03-14 17:00:00,55.0,11.0,-100.00,NW,306,1.0,5.0,17,-99.99,,,0.00,39.400002,,2013-03-14 23:00:00,
2013-03-14 18:00:00,52.0,14.0,-100.00,West,268,0.0,1.0,22,-99.99,,,0.00,37.900002,,2013-03-15 00:00:00,
2013-03-14 19:00:00,47.0,13.0,-100.00,South,170,1.0,2.0,25,-99.99,,,0.00,9.800000,,2013-03-15 01:00:00,
2013-03-14 20:00:00,40.0,14.0,-100.00,SSE,159,0.0,2.0,34,-99.99,,,0.00,0.600000,,2013-03-15 02:00:00,
2013-03-14 21:00:00,37.0,16.0,-100.00,SSE,161,0.0,1.0,42,-99.99,,,0.00,0.000000,,2013-03-15 03:00:00,
2013-03-14 22:00:00,35.0,18.0,-100.00,SSE,164,0.0,0.0,50,-99.99,,,0.00,0.000000,,2013-03-15 04:00:00,
2013-03-14 23:00:00,33.0,19.0,-100.00,ESE,122,0.0,1.0,57,-99.99,,,0.00,0.000000,,2013-03-15 05:00:00,
2013-03-14 23:42:00,33.0,19.0,-100.00,ESE,122,0.0,1.0,57,-99.99,,,0.00,0.000000,,2013-03-15 05:42:00,
2013-03-14 23:52:00,33.0,19.0,-100.00,ESE,122,0.0,1.0,57,-99.99,,,0.00,0.000000,,2013-03-15 05:52:00,